This demonstration page uses our WeatherBlox Daily Observations layout. Learn more.

Left ArrowRight Arrow

39.51506, -84.39828

Hourly Observations for April 15, 2015

Temp ( °F °C ) Dew Point ( °F °C ) Humidity (%) Winds ( mph kmh ) Pressure ( in mb ) Visibility ( mi km ) Precip ( " mm )
12:15 am 00:15 Clear 55 12.5 37 3 53 53 NNE 5 7 30.21 1023 10 16.0934 N/A
12:35 am 00:35 Clear 55 12.5 37 2.9 52 52 NNE 5 7 30.21 1023 10 16.0934 N/A
12:55 am 00:55 Clear 55 12.5 38 3.4 54 54 NE 3 6 30.21 1023 10 16.0934 N/A
1:15 am 01:15 Clear 51 10.8 37 2.8 58 58 NE 3 6 30.21 1023 10 16.0934 N/A
1:35 am 01:35 Clear 55 12.5 37 2.8 52 52 N N/A 30.21 1023 10 16.0934 N/A
1:55 am 01:55 Clear 49 9.7 36 2.3 60 60 N N/A 30.21 1023 10 16.0934 N/A
2:15 am 02:15 Clear 49 9.6 38 3.6 66 66 N N/A 30.21 1023 10 16.0934 N/A
2:35 am 02:35 Clear 49 9.6 37 2.8 63 63 N N/A 30.21 1023 10 16.0934 N/A
2:55 am 02:55 Clear 49 9.6 42 5.3 75 75 N 3 6 30.21 1023 10 16.0934 N/A
3:15 am 03:15 Clear 49 9.6 41 5.1 74 74 N 3 6 30.21 1023 10 16.0934 N/A
3:35 am 03:35 Clear 49 9.6 40 4.6 71 71 N N/A 30.21 1023 10 16.0934 N/A
3:55 am 03:55 Clear 49 9.6 42 5.4 75 75 N 3 6 30.21 1023 10 16.0934 N/A
4:15 am 04:15 Clear 47 8.2 39 3.9 75 75 NNE 3 6 30.21 1023 10 16.0934 N/A
4:35 am 04:35 Clear 47 8.2 37 2.9 70 70 NNE 7 11 30.21 1023 10 16.0934 N/A
4:55 am 04:55 Clear 49 9.6 34 1.3 57 57 NNE 5 7 30.21 1023 10 16.0934 N/A
5:15 am 05:15 Clear 47 8.2 37 2.5 68 68 NNE 5 7 30.21 1023 10 16.0934 N/A
5:35 am 05:35 Clear 49 9.6 37 3 64 64 NNE 5 7 30.21 1023 10 16.0934 N/A
5:55 am 05:55 Clear 49 9.6 37 2.9 63 63 NNE 3 6 30.18 1022 10 16.0934 N/A
6:15 am 06:15 Clear 48 8.8 37 2.6 65 65 N 5 7 30.18 1022 10 16.0934 N/A
6:35 am 06:35 Clear 49 9.6 36 2.2 60 60 N 6 9 30.21 1023 10 16.0934 N/A
6:55 am 06:55 Clear 49 9.6 35 1.5 57 57 NNE 5 7 30.18 1022 10 16.0934 N/A
7:15 am 07:15 Sunny 49 9.6 34 1.1 56 56 ENE 6 9 30.18 1022 10 16.0934 N/A
7:35 am 07:35 Sunny 49 9.6 33 0.6 54 54 ENE 3 6 30.21 1023 10 16.0934 N/A
7:55 am 07:55 Sunny 49 9.6 35 1.9 59 59 NE 5 7 30.21 1023 10 16.0934 N/A
8:15 am 08:15 Sunny 49 9.6 32 0.1 52 52 NNE 3 6 30.21 1023 10 16.0934 N/A
8:35 am 08:35 Sunny 51 10.3 32 undefined 49 49 NE 6 9 30.21 1023 10 16.0934 N/A
8:55 am 08:55 Sunny 55 12.5 32 0.2 43 43 NE 6 9 30.21 1023 10 16.0934 N/A
9:15 am 09:15 Sunny 55 12.5 32 -0.1 42 42 ENE 7 11 30.24 1024 10 16.0934 N/A
9:35 am 09:35 Sunny 55 12.5 30 -1.1 39 39 NE 9 15 30.24 1024 10 16.0934 N/A
9:55 am 09:55 Sunny 56 13.2 31 -0.4 39 39 ENE 9 15 30.24 1024 10 16.0934 N/A
10:15 am 10:15 Sunny 57 13.8 28 -2.2 33 33 ENE 13 20 30.24 1024 10 16.0934 N/A
10:35 am 10:35 Sunny 57 13.8 28 -2 34 34 ENE 12 19 30.24 1024 10 16.0934 N/A
10:55 am 10:55 Sunny 60 15.3 29 -1.4 32 32 ENE 14 22 30.24 1024 10 16.0934 N/A
11:15 am 11:15 Sunny 60 15.3 30 -1 33 33 ENE 13 20 30.24 1024 10 16.0934 N/A
11:35 am 11:35 Sunny 60 15.8 28 -2.3 29 29 ENE 16 26 30.24 1024 10 16.0934 N/A
11:55 am 11:55 Sunny 62 16.6 29 -1.8 29 29 ENE 14 22 30.24 1024 10 16.0934 N/A
12:15 pm 12:15 Sunny 62 16.6 26 -3.5 25 25 ENE 17 28 30.24 1024 10 16.0934 N/A
12:35 pm 12:35 Sunny 64 18 25 -4.1 22 22 ENE 21 33 30.21 1023 10 16.0934 N/A
12:55 pm 12:55 Sunny 65 18.1 22 -5.6 20 20 ENE 18 30 30.21 1023 10 16.0934 N/A
1:15 pm 13:15 Sunny 67 19.5 27 -3 22 22 ENE 16 26 30.21 1023 10 16.0934 N/A
1:35 pm 13:35 Sunny 67 19.5 28 -2.4 23 23 E 15 24 30.21 1023 10 16.0934 N/A
1:55 pm 13:55 Sunny 64 18 26 -3.2 24 24 E 18 30 30.21 1023 10 16.0934 N/A
2:15 pm 14:15 Sunny 67 19.5 29 -1.7 24 24 ENE 18 30 30.18 1022 10 16.0934 N/A
2:35 pm 14:35 Sunny 69 20.8 30 -0.9 23 23 E 15 24 30.18 1022 10 16.0934 N/A
2:55 pm 14:55 Sunny 69 20.8 32 undefined 25 25 E 15 24 30.18 1022 10 16.0934 N/A
3:15 pm 15:15 Sunny 69 20.8 33 0.5 26 26 E 14 22 30.15 1021 10 16.0934 N/A
3:35 pm 15:35 Sunny 69 20.8 31 -0.3 24 24 ENE 17 28 30.15 1021 10 16.0934 N/A
3:55 pm 15:55 Partly Cloudy 69 20.8 32 0.2 25 25 E 18 30 30.15 1021 10 16.0934 N/A
4:15 pm 16:15 Mostly Cloudy 69 20.8 34 1 27 27 E 13 20 30.15 1021 10 16.0934 N/A
4:35 pm 16:35 Mostly Cloudy 69 20.8 33 0.8 26 26 E 17 28 30.15 1021 10 16.0934 N/A
4:55 pm 16:55 Cloudy 69 20.8 34 1 27 27 E 10 17 30.15 1021 10 16.0934 N/A
5:15 pm 17:15 Cloudy 69 20.8 33 0.6 26 26 E 14 22 30.15 1021 10 16.0934 N/A
5:35 pm 17:35 Cloudy 69 20.8 33 0.3 26 26 E 13 20 30.15 1021 10 16.0934 N/A
5:55 pm 17:55 Cloudy 69 20.8 32 -0.2 25 25 E 12 19 30.15 1021 10 16.0934 N/A
6:15 pm 18:15 Cloudy 69 20.7 30 -1 23 23 E 15 24 30.15 1021 10 16.0934 N/A
6:35 pm 18:35 Cloudy 67 19.5 26 -3.2 21 21 E 13 20 30.15 1021 10 16.0934 N/A
6:55 pm 18:55 Cloudy 67 19.5 27 -3 22 22 E 9 15 30.15 1021 10 16.0934 N/A
7:15 pm 19:15 Cloudy 64 18 27 -2.7 24 24 E 10 17 30.15 1021 10 16.0934 N/A
7:35 pm 19:35 Cloudy 64 18 29 -1.5 27 27 ENE 6 9 30.15 1021 10 16.0934 N/A
7:55 pm 19:55 Cloudy 64 18 29 -1.9 26 26 E 8 13 30.15 1021 10 16.0934 N/A
8:15 pm 20:15 Cloudy 63 17.3 28 -2.1 27 27 E 6 9 30.15 1021 10 16.0934 N/A
8:35 pm 20:35 Cloudy 63 17.2 28 -2.1 27 27 E 6 9 30.15 1021 10 16.0934 N/A
8:55 pm 20:55 Cloudy 63 17 30 -1.3 29 29 E 5 7 30.21 1023 10 16.0934 N/A
9:15 pm 21:15 Cloudy 62 16.6 31 -0.5 31 31 ENE 5 7 30.21 1023 10 16.0934 N/A
9:35 pm 21:35 Cloudy 62 16.6 32 -0.2 32 32 E 5 7 30.21 1023 10 16.0934 N/A
9:55 pm 21:55 Cloudy 62 16.6 34 1.1 35 35 ENE 5 7 30.21 1023 10 16.0934 N/A
10:15 pm 22:15 Cloudy 61 16 36 2.3 40 40 ENE 5 7 30.21 1023 10 16.0934 N/A
10:35 pm 22:35 Cloudy 60 15.6 37 2.8 42 42 N N/A 30.21 1023 10 16.0934 N/A
10:55 pm 22:55 Cloudy 61 16 37 2.8 41 41 ESE 3 6 30.21 1023 10 16.0934 N/A
11:15 pm 23:15 Cloudy 62 16.6 34 0.9 35 35 ESE 10 17 30.21 1023 10 16.0934 N/A
11:35 pm 23:35 Cloudy 62 16.6 32 undefined 33 33 ESE 8 13 30.21 1023 10 16.0934 N/A
11:55 pm 23:55 Mostly Cloudy 62 16.6 30 -1.3 30 30 ESE 9 15 30.21 1023 10 16.0934 N/A

Powered by AerisWeather